period_start,C,m1,H,J0,J1,J2,J3,J4,J5,JA,JB,JC,JD,JJ,JK,JN,#
2018-02-04 00:01:06,0.57,14.96,1.00,17.14,20.42,23.87,14.66,52.96,1043.96,2047.06,871.04,1103.62,1260.56,600.01,624.43,47.47,0000 0000 0000 0000 000000
2018-02-04 00:06:07,0.55,14.99,1.00,17.14,20.41,23.86,14.70,52.81,1043.96,2047.04,869.33,1102.05,1258.72,599.71,624.13,47.52,0000 0000 0000 0000 000000
2018-02-04 00:11:09,0.57,15.01,1.00,17.15,20.40,23.87,14.68,52.73,1043.96,2047.05,867.61,1100.54,1256.92,600.30,624.75,47.57,0000 0000 0000 0000 000000
2018-02-04 00:16:10,0.58,15.04,1.00,17.13,20.39,23.87,14.72,52.77,1043.96,2047.03,865.75,1098.91,1255.13,599.91,624.46,47.62,0000 0000 0000 0000 000000
2018-02-04 00:21:11,0.56,15.07,1.00,17.12,20.39,23.86,14.60,52.80,1043.96,2047.03,863.93,1097.41,1253.37,600.10,624.51,47.67,0000 0000 0000 0000 000000
2018-02-04 00:26:12,0.63,15.10,1.00,17.12,20.39,23.85,14.64,52.85,1043.96,2047.14,862.03,1095.81,1251.61,599.85,624.45,47.73,0000 0000 0000 0000 000000
2018-02-04 00:31:14,0.53,15.13,1.00,17.12,20.39,23.86,14.65,52.80,1043.96,2047.19,860.40,1094.36,1249.82,599.94,624.41,47.78,0000 0000 0000 0000 000000
2018-02-04 00:36:15,0.57,15.16,1.00,17.10,20.37,23.86,14.74,52.89,1043.96,2047.19,858.76,1092.80,1248.11,599.82,624.33,47.83,0000 0000 0000 0000 000000
2018-02-04 00:41:16,0.51,15.19,1.00,17.09,20.37,23.83,14.68,52.74,1043.96,2047.16,857.09,1091.36,1246.33,599.72,624.30,47.88,0000 0000 0000 0000 000000
2018-02-04 00:46:18,0.57,15.22,1.00,17.09,20.37,23.84,14.69,52.85,1043.96,2047.13,855.38,1089.78,1244.62,600.26,624.77,47.93,0000 0000 0000 0000 000000
2018-02-04 00:51:19,0.57,15.24,1.00,17.09,20.37,23.85,14.72,52.82,1043.94,2047.19,853.67,1088.35,1242.90,599.84,624.40,47.98,0000 0000 0000 0000 000000
2018-02-04 00:56:20,0.53,15.27,1.00,17.09,20.37,23.83,14.74,52.89,1043.93,2047.31,851.96,1086.94,1241.21,600.19,624.54,48.03,0000 0000 0000 0000 000000
2018-02-04 01:01:22,0.58,15.30,1.00,17.09,20.37,23.82,14.67,53.00,1043.94,2047.56,850.42,1085.59,1239.53,599.53,624.04,48.08,0000 0000 0000 0000 000000
2018-02-04 01:06:23,0.52,15.33,1.00,17.09,20.37,23.82,14.66,52.95,1043.96,2047.35,848.72,1084.14,1237.79,599.78,624.25,48.13,0000 0000 0000 0000 000000
2018-02-04 01:11:24,0.55,15.36,1.00,17.07,20.37,23.83,14.69,53.00,1043.96,2047.24,847.03,1082.61,1236.10,599.76,624.27,48.18,0000 0000 0000 0000 000000
2018-02-04 01:16:26,0.48,15.38,1.00,17.08,20.36,23.84,14.68,52.83,1043.95,2047.21,845.49,1081.19,1234.41,600.06,624.58,48.23,0000 0000 0000 0000 000000
2018-02-04 01:21:27,0.64,15.41,1.00,17.09,20.35,23.83,14.76,52.90,1043.94,2047.31,843.72,1079.70,1232.75,600.23,624.79,48.28,0000 0000 0000 0000 000000
2018-02-04 01:26:28,0.51,15.44,1.00,17.08,20.35,23.82,14.75,52.95,1043.94,2047.40,842.04,1078.28,1231.06,600.23,624.83,48.33,0000 0000 0000 0000 000000
2018-02-04 01:31:30,0.56,15.47,1.00,17.09,20.34,23.83,14.77,53.01,1043.96,2047.46,840.56,1076.78,1229.40,599.96,624.48,48.38,0000 0000 0000 0000 000000
2018-02-04 01:36:31,0.59,15.50,1.00,17.08,20.34,23.81,14.70,52.92,1043.94,2047.38,838.75,1075.34,1227.71,600.11,624.66,48.43,0000 0000 0000 0000 000000
2018-02-04 01:41:32,0.52,15.52,1.00,17.07,20.34,23.81,14.74,53.05,1043.94,2047.55,837.21,1073.86,1226.01,600.07,624.69,48.48,0000 0000 0000 0000 000000
2018-02-04 01:46:34,0.59,15.55,1.00,17.07,20.34,23.81,14.76,53.00,1043.96,2047.65,835.62,1072.47,1224.40,600.26,624.84,48.53,0000 0000 0000 0000 000000
2018-02-04 01:51:35,0.49,15.58,1.00,17.07,20.34,23.82,14.67,52.88,1043.96,2047.62,834.02,1071.02,1222.69,599.70,624.30,48.59,0000 0000 0000 0000 000000
2018-02-04 01:56:36,0.51,15.61,1.00,17.07,20.34,23.82,14.74,52.93,1043.94,2047.33,832.60,1069.59,1220.99,600.04,624.62,48.64,0000 0000 0000 0000 000000
2018-02-04 02:01:38,0.44,15.63,1.00,17.08,20.34,23.82,14.74,53.02,1043.93,2047.14,831.10,1068.17,1219.35,600.21,624.76,48.69,0000 0000 0000 0000 000000
2018-02-04 02:06:39,0.63,15.66,1.00,17.07,20.34,23.82,14.72,52.98,1043.95,2047.14,829.37,1066.67,1217.70,600.18,624.85,48.74,0000 0000 0000 0000 000000
2018-02-04 02:11:40,0.55,15.69,1.00,17.07,20.32,23.80,14.77,53.05,1043.96,2047.21,827.71,1065.28,1216.12,600.12,624.65,48.79,0000 0000 0000 0000 000000
2018-02-04 02:16:41,0.50,15.71,1.00,17.09,20.32,23.81,14.71,53.03,1043.96,2047.21,826.17,1063.83,1214.59,600.17,624.77,48.84,0000 0000 0000 0000 000000
2018-02-04 02:21:43,0.57,15.74,1.00,17.07,20.32,23.80,14.73,53.15,1043.96,2047.22,824.63,1062.43,1212.94,600.24,624.75,48.89,0000 0000 0000 0000 000000
2018-02-04 02:26:44,0.53,15.77,1.00,17.06,20.32,23.79,14.74,53.13,1043.96,2047.18,823.03,1060.97,1211.35,600.39,625.10,48.94,0000 0000 0000 0000 000000
2018-02-04 02:31:45,0.59,15.80,1.00,17.07,20.32,23.80,14.75,53.17,1043.96,2047.13,821.29,1059.54,1209.69,599.99,624.60,48.99,0000 0000 0000 0000 000000
2018-02-04 02:36:47,0.65,15.83,1.00,17.09,20.31,23.79,14.78,53.21,1043.95,2047.58,819.51,1058.11,1208.13,600.45,625.00,49.04,0000 0000 0000 0000 000000
2018-02-04 02:41:48,0.57,15.86,1.00,17.10,20.30,23.80,14.67,53.17,1043.96,2047.87,817.93,1056.72,1206.52,599.92,624.40,49.09,0000 0000 0000 0000 000000
2018-02-04 02:46:49,0.55,15.89,1.00,17.13,20.30,23.78,14.71,53.17,1043.96,2047.83,816.49,1055.30,1204.79,599.95,624.37,49.14,0000 0000 0000 0000 000000
2018-02-04 02:51:51,0.56,15.92,1.00,17.13,20.30,23.79,14.69,53.26,1043.96,2047.81,814.88,1053.83,1203.19,600.14,624.63,49.19,0000 0000 0000 0000 000000
2018-02-04 02:56:52,0.54,15.95,1.00,17.14,20.30,23.78,14.70,53.17,1043.95,2047.87,813.35,1052.48,1201.59,600.04,624.46,49.24,0000 0000 0000 0000 000000
2018-02-04 03:01:53,0.59,15.98,1.00,17.15,20.30,23.78,14.68,53.17,1043.96,2047.90,811.68,1051.02,1199.96,600.27,624.66,49.29,0000 0000 0000 0000 000000
2018-02-04 03:06:55,0.60,16.01,1.00,17.16,20.30,23.77,14.75,53.18,1043.95,2047.93,809.97,1049.57,1198.32,600.38,624.69,49.34,0000 0000 0000 0000 000000
2018-02-04 03:11:56,0.52,16.03,1.00,17.17,20.31,23.77,14.75,53.23,1043.94,2047.95,808.50,1048.19,1196.67,600.18,624.53,49.39,0000 0000 0000 0000 000000
2018-02-04 03:16:58,0.59,16.06,1.00,17.17,20.32,23.78,14.78,53.31,1043.86,2047.93,806.84,1046.69,1194.97,599.98,624.35,49.44,0000 0000 0000 0000 000000
2018-02-04 03:21:59,0.53,16.09,1.00,17.17,20.32,23.79,14.76,53.33,1043.87,2047.93,805.28,1045.30,1193.35,600.23,624.63,49.49,0000 0000 0000 0000 000000
2018-02-04 03:27:00,0.60,16.12,1.00,17.19,20.32,23.79,14.66,53.34,1043.88,2047.90,803.66,1043.82,1191.70,599.87,624.00,49.54,0000 0000 0000 0000 000000
2018-02-04 03:32:01,0.57,16.15,1.00,17.21,20.32,23.79,14.66,53.33,1043.77,2047.92,801.97,1042.43,1190.01,600.24,624.47,49.60,0000 0000 0000 0000 000000
2018-02-04 03:37:02,0.53,16.18,1.00,17.21,20.33,23.80,14.65,53.23,1043.70,2047.81,800.42,1040.93,1188.42,600.03,624.10,49.65,0000 0000 0000 0000 000000
2018-02-04 03:42:03,0.60,16.21,1.00,17.22,20.34,23.80,14.62,53.28,1043.66,2047.71,798.80,1039.51,1186.74,599.80,623.86,49.70,0000 0000 0000 0000 000000
2018-02-04 03:47:04,0.54,16.23,1.00,17.23,20.34,23.80,14.65,53.28,1043.68,2047.50,797.12,1038.01,1185.05,599.91,624.01,49.75,0000 0000 0000 0000 000000
2018-02-04 03:52:05,0.57,16.26,1.00,17.23,20.34,23.80,14.66,53.32,1043.53,2047.40,795.55,1036.59,1183.41,600.31,624.46,49.80,0000 0000 0000 0000 000000
2018-02-04 03:57:07,0.53,16.29,1.00,17.25,20.35,23.82,14.68,53.21,1043.57,2047.46,794.07,1035.25,1181.73,599.96,623.97,49.85,0000 0000 0000 0000 000000
2018-02-04 04:02:08,0.54,16.32,1.00,17.25,20.36,23.83,14.73,53.32,1043.56,2047.21,792.50,1033.81,1180.15,600.37,624.09,49.90,0000 0000 0000 0000 000000
2018-02-04 04:07:09,0.58,16.35,1.00,17.27,20.37,23.82,14.70,53.37,1043.60,2047.12,790.86,1032.38,1178.49,599.94,623.85,49.95,0000 0000 0000 0000 000000
2018-02-04 04:12:11,0.55,16.37,1.00,17.29,20.37,23.84,14.71,53.27,1043.70,2047.11,789.30,1030.95,1176.85,600.18,624.15,50.00,0000 0000 0000 0000 000000
2018-02-04 04:17:12,0.61,16.41,1.00,17.30,20.37,23.84,14.70,53.27,1043.67,2047.06,787.72,1029.54,1175.23,600.07,623.96,50.05,0000 0000 0000 0000 000000
2018-02-04 04:22:13,0.51,16.43,1.00,17.32,20.37,23.85,14.75,53.23,1043.78,2047.03,786.32,1028.12,1173.56,600.29,624.24,50.10,0000 0000 0000 0000 000000
2018-02-04 04:27:15,0.64,16.46,1.00,17.33,20.38,23.86,14.71,53.13,1043.91,2047.03,784.69,1026.67,1171.90,599.73,623.70,50.15,0000 0000 0000 0000 000000
2018-02-04 04:32:16,0.51,16.49,1.00,17.30,20.39,23.86,14.66,53.18,1043.91,2047.01,783.16,1025.32,1170.30,600.14,624.12,50.20,0000 0000 0000 0000 000000
2018-02-04 04:37:18,0.64,16.52,1.00,17.31,20.39,23.88,14.63,53.14,1043.90,2047.00,781.48,1023.82,1168.63,599.99,623.97,50.25,0000 0000 0000 0000 000000
2018-02-04 04:42:19,0.56,16.55,1.00,17.32,20.40,23.89,14.71,53.22,1043.92,2047.00,779.86,1022.56,1167.02,599.87,624.06,50.30,0000 0000 0000 0000 000000
2018-02-04 04:47:20,0.54,16.58,1.00,17.32,20.42,23.91,14.73,53.19,1043.96,2047.00,778.26,1021.16,1165.39,599.96,624.01,50.35,0000 0000 0000 0000 000000
2018-02-04 04:52:21,0.64,16.61,1.00,17.32,20.42,23.93,14.72,53.21,1043.96,2047.00,776.68,1019.75,1163.76,599.98,624.06,50.40,0000 0000 0000 0000 000000
2018-02-04 04:57:23,0.57,16.64,1.00,17.34,20.42,23.93,14.64,53.30,1043.96,2047.00,775.10,1018.32,1162.12,600.18,624.22,50.45,0000 0000 0000 0000 000000
2018-02-04 05:02:24,0.59,16.67,1.00,17.34,20.44,23.93,14.64,53.17,1043.96,2047.00,773.46,1016.90,1160.55,599.99,623.89,50.51,0000 0000 0000 0000 000000
2018-02-04 05:07:25,0.57,16.70,1.00,17.32,20.44,23.95,14.70,53.36,1043.96,2047.00,771.96,1015.57,1158.91,600.01,624.14,50.56,0000 0000 0000 0000 000000
2018-02-04 05:12:27,0.54,16.73,1.00,17.34,20.44,23.94,14.67,53.27,1043.96,2047.00,770.45,1014.15,1157.40,600.03,624.05,50.61,0000 0000 0000 0000 000000
2018-02-04 05:17:28,0.59,16.76,1.00,17.34,20.46,23.97,14.63,53.31,1043.96,2047.00,769.03,1012.74,1155.74,600.01,624.00,50.66,0000 0000 0000 0000 000000
2018-02-04 05:22:30,0.57,16.79,1.00,17.34,20.47,23.96,14.65,53.41,1043.96,2047.00,767.42,1011.42,1154.17,599.77,623.71,50.71,0000 0000 0000 0000 000000
2018-02-04 05:27:31,0.62,16.81,1.00,17.33,20.47,23.96,14.63,53.46,1043.96,2047.00,765.88,1009.94,1152.56,599.75,623.74,50.76,0000 0000 0000 0000 000000
2018-02-04 05:32:33,0.57,16.85,1.00,17.34,20.47,23.98,14.76,53.41,1043.96,2047.00,764.27,1008.56,1150.96,600.16,624.17,50.81,0000 0000 0000 0000 000000
2018-02-04 05:37:34,0.59,16.88,1.00,17.34,20.49,23.97,14.68,53.14,1043.96,2047.00,762.71,1007.19,1149.43,599.76,623.71,50.86,0000 0000 0000 0000 000000
2018-02-04 05:42:35,0.58,16.91,1.00,17.35,20.49,23.98,14.69,53.27,1043.96,2047.00,761.14,1005.72,1147.80,600.02,623.90,50.91,0000 0000 0000 0000 000000
2018-02-04 05:47:37,0.61,16.94,1.00,17.34,20.49,23.97,14.71,53.42,1043.96,2047.00,759.68,1004.35,1146.16,600.30,624.35,50.96,0000 0000 0000 0000 000000
2018-02-04 05:52:38,0.56,16.97,1.00,17.35,20.49,23.97,14.66,53.45,1043.95,2047.00,758.17,1002.92,1144.57,600.20,624.12,51.01,0000 0000 0000 0000 000000
2018-02-04 05:57:39,0.65,17.00,1.00,17.37,20.49,23.98,14.65,53.29,1043.96,2047.00,756.60,1001.55,1142.95,600.12,624.03,51.06,0000 0000 0000 0000 000000
2018-02-04 06:02:40,0.58,17.03,1.00,17.37,20.50,23.99,14.65,53.43,1043.92,2047.00,754.91,1000.17,1141.43,600.04,623.98,51.11,0000 0000 0000 0000 000000
2018-02-04 06:07:42,0.61,17.06,1.00,17.37,20.50,23.99,14.72,53.43,1043.96,2047.00,753.40,998.77,1139.80,600.15,624.12,51.16,0000 0000 0000 0000 000000
2018-02-04 06:12:43,0.56,17.09,1.00,17.35,20.50,23.98,14.69,53.33,1043.96,2047.00,751.90,997.42,1138.24,599.91,623.94,51.21,0000 0000 0000 0000 000000
2018-02-04 06:17:44,0.58,17.12,1.00,17.34,20.51,23.98,14.66,53.43,1043.96,2047.00,750.38,996.03,1136.65,599.92,623.84,51.26,0000 0000 0000 0000 000000
2018-02-04 06:22:46,0.65,17.15,1.00,17.32,20.51,23.99,14.70,53.62,1043.96,2047.00,748.78,994.62,1135.07,600.15,624.20,51.31,0000 0000 0000 0000 000000
2018-02-04 06:27:47,0.55,17.18,1.00,17.32,20.52,23.99,14.65,53.54,1043.96,2046.99,747.33,993.29,1133.47,599.79,623.79,51.36,0000 0000 0000 0000 000000
2018-02-04 06:32:48,0.60,17.21,1.00,17.32,20.52,24.00,14.65,53.58,1043.95,2046.99,745.73,991.94,1131.87,599.72,623.78,51.42,0000 0000 0000 0000 000000
2018-02-04 06:37:49,0.60,17.24,1.00,17.32,20.52,23.99,14.69,53.42,1043.95,2046.99,744.29,990.56,1130.30,599.69,623.73,51.47,0000 0000 0000 0000 000000
2018-02-04 06:42:50,0.59,17.27,1.00,17.31,20.52,23.99,14.80,53.48,1043.95,2046.99,742.80,989.16,1128.71,600.75,624.92,51.52,0000 0000 0000 0000 000000
2018-02-04 06:47:52,0.58,17.30,1.00,17.31,20.52,24.00,14.66,53.42,1043.96,2046.98,741.34,987.79,1127.12,599.89,623.94,51.57,0000 0000 0000 0000 000000
2018-02-04 06:52:53,0.66,17.33,1.00,17.32,20.52,23.99,14.64,53.43,1043.96,2046.97,739.72,986.44,1125.60,599.98,624.00,51.62,0000 0000 0000 0000 000000
2018-02-04 06:57:54,0.55,17.36,1.00,17.32,20.51,24.00,14.71,53.53,1043.96,2046.99,738.19,985.05,1124.03,599.86,624.00,51.67,0000 0000 0000 0000 000000
2018-02-04 07:02:55,0.67,17.40,1.00,17.32,20.51,24.01,14.65,53.46,1043.96,2046.98,736.61,983.69,1122.48,599.88,623.94,51.72,0000 0000 0000 0000 000000
2018-02-04 07:07:57,0.56,17.42,1.00,17.31,20.50,24.00,14.69,53.61,1043.96,2046.99,735.15,982.37,1120.88,599.79,623.85,51.77,0000 0000 0000 0000 000000
2018-02-04 07:12:58,0.62,17.46,1.00,17.32,20.49,24.00,14.68,53.62,1043.96,2046.99,733.56,980.94,1119.37,599.92,623.83,51.82,0000 0000 0000 0000 000000
2018-02-04 07:17:59,0.59,17.49,1.00,17.31,20.49,24.00,14.69,53.59,1043.96,2046.99,732.12,979.64,1117.69,599.92,623.97,51.87,0000 0000 0000 0000 000000
2018-02-04 07:23:01,0.60,17.52,1.00,17.31,20.49,23.98,14.69,53.63,1043.96,2046.99,730.62,978.30,1116.19,600.07,624.14,51.92,0000 0000 0000 0000 000000
2018-02-04 07:28:02,0.63,17.55,1.00,17.30,20.49,24.01,14.68,53.77,1043.96,2046.99,728.96,976.88,1114.63,600.14,624.19,51.97,0000 0000 0000 0000 000000
2018-02-04 07:33:04,0.62,17.58,1.00,17.29,20.49,23.99,14.72,53.79,1043.95,2046.99,727.46,975.56,1113.07,600.35,624.33,52.02,0000 0000 0000 0000 000000
2018-02-04 07:38:05,0.59,17.61,1.00,17.28,20.49,23.98,14.68,53.83,1043.95,2046.99,725.90,974.19,1111.56,600.15,624.39,52.07,0000 0000 0000 0000 000000
2018-02-04 07:43:06,0.62,17.64,1.00,17.29,20.49,24.00,14.73,53.82,1043.96,2046.99,724.47,972.80,1109.95,599.78,623.92,52.12,0000 0000 0000 0000 000000
2018-02-04 07:48:07,0.63,17.67,1.00,17.27,20.49,23.99,14.71,53.77,1043.95,2046.99,722.85,971.52,1108.43,600.21,624.42,52.17,0000 0000 0000 0000 000000
2018-02-04 07:53:08,0.57,17.70,1.00,17.25,20.49,23.98,14.78,53.75,1043.96,2046.99,721.46,970.15,1106.85,599.89,624.00,52.22,0000 0000 0000 0000 000000
2018-02-04 07:58:10,0.59,17.74,1.00,17.27,20.49,23.97,14.71,53.63,1043.96,2046.99,719.97,968.78,1105.29,600.00,624.21,52.27,0000 0000 0000 0000 000000
2018-02-04 08:03:11,0.63,17.76,1.00,17.27,20.49,24.00,14.66,53.64,1043.96,2046.99,718.59,967.53,1103.75,599.93,624.16,52.33,0000 0000 0000 0000 000000
2018-02-04 08:08:12,0.57,17.79,1.00,17.26,20.49,23.97,14.68,53.76,1043.96,2046.99,717.07,966.14,1102.21,599.89,624.04,52.38,0000 0000 0000 0000 000000
2018-02-04 08:13:14,0.67,17.83,1.00,17.25,20.48,23.98,14.61,53.80,1043.96,2046.99,715.53,964.75,1100.66,599.78,624.04,52.43,0000 0000 0000 0000 000000
2018-02-04 08:18:15,0.63,17.86,1.00,17.25,20.47,23.99,14.71,53.86,1043.96,2046.99,713.89,963.44,1099.10,599.91,624.17,52.48,0000 0000 0000 0000 000000
2018-02-04 08:23:16,0.60,17.89,1.00,17.24,20.47,23.98,14.68,53.82,1043.96,2046.99,712.41,962.04,1097.59,600.11,624.32,52.53,0000 0000 0000 0000 000000
2018-02-04 08:28:18,0.62,17.92,1.00,17.24,20.47,23.96,14.70,53.90,1043.97,2046.99,710.98,960.71,1096.01,599.76,623.99,52.58,0000 0000 0000 0000 000000
2018-02-04 08:33:19,0.63,17.95,1.00,17.24,20.47,23.95,14.63,53.80,1043.97,2046.99,709.44,959.50,1094.50,599.75,624.04,52.63,0000 0000 0000 0000 000000
2018-02-04 08:38:20,0.60,17.98,1.00,17.24,20.47,23.96,14.70,54.05,1043.96,2046.99,707.86,958.24,1092.96,600.08,624.28,52.68,0000 0000 0000 0000 000000
2018-02-04 08:43:21,0.61,18.02,1.00,17.25,20.47,23.96,14.68,54.08,1043.96,2046.99,706.43,956.88,1091.48,600.08,624.22,52.73,0000 0000 0000 0000 000000
2018-02-04 08:48:22,0.63,18.05,1.00,17.25,20.47,23.95,14.75,54.13,1043.96,2046.99,704.93,955.58,1089.88,600.02,624.22,52.78,0000 0000 0000 0000 000000
2018-02-04 08:53:23,0.58,18.08,1.00,17.23,20.47,23.95,14.70,53.98,1043.98,2046.99,703.55,954.25,1088.39,600.13,624.41,52.83,0000 0000 0000 0000 000000
2018-02-04 08:58:24,0.56,18.11,1.00,17.23,20.47,23.94,14.68,53.98,1043.96,2046.99,702.25,952.87,1086.87,599.86,624.07,52.88,0000 0000 0000 0000 000000
2018-02-04 09:03:26,0.64,18.14,1.00,17.23,20.47,23.95,14.78,53.92,1043.97,2046.99,700.81,951.60,1085.46,600.10,624.48,52.93,0000 0000 0000 0000 000000
2018-02-04 09:08:27,0.60,18.17,1.00,17.24,20.47,23.95,14.70,53.96,1043.97,2046.99,699.39,950.23,1083.88,600.02,624.26,52.98,0000 0000 0000 0000 000000
2018-02-04 09:13:28,0.69,18.20,1.00,17.21,20.47,23.95,14.62,53.92,1043.96,2046.99,697.80,948.83,1082.32,599.90,624.09,53.03,0000 0000 0000 0000 000000
2018-02-04 09:18:30,0.62,18.23,1.00,17.20,20.46,23.95,14.73,54.08,1043.97,2046.99,696.30,947.53,1080.79,600.36,624.63,53.08,0000 0000 0000 0000 000000
2018-02-04 09:23:31,0.65,18.27,1.00,17.19,20.45,23.94,14.75,54.11,1043.96,2046.99,694.71,946.21,1079.29,600.09,624.40,53.14,0000 0000 0000 0000 000000
2018-02-04 09:28:32,0.63,18.30,1.00,17.19,20.44,23.93,14.69,54.05,1043.97,2046.99,693.26,944.80,1077.68,600.02,624.40,53.19,0000 0000 0000 0000 000000
2018-02-04 09:33:34,0.64,18.33,1.00,17.18,20.44,23.96,14.79,54.16,1043.96,2046.99,691.79,943.54,1076.18,600.08,624.34,53.24,0000 0000 0000 0000 000000
2018-02-04 09:38:35,0.60,18.37,1.00,17.17,20.44,23.93,14.68,54.10,1043.96,2046.99,690.35,942.17,1074.62,600.05,624.35,53.29,0000 0000 0000 0000 000000
2018-02-04 09:43:36,0.64,18.40,1.00,17.16,20.44,23.93,13.73,50.33,1043.96,2046.99,688.93,940.80,1073.01,556.47,579.04,53.33,0000 0000 0000 0000 000209
2018-02-04 09:48:38,0.90,0.61,1.00,17.15,20.46,23.91,14.07,46.76,1043.97,2054.00,3504.94,3136.63,3598.88,577.59,601.07,0.01,0000 0000 0000 0000 000000
2018-02-04 09:53:39,0.90,0.02,1.00,17.15,20.44,23.91,14.61,48.02,1043.96,2053.98,3487.81,3124.68,3585.81,599.64,624.07,0.06,0000 0000 0000 0000 000000
2018-02-04 09:58:41,0.90,0.06,1.00,17.15,20.43,23.90,14.59,47.89,1043.96,2053.97,3471.94,3112.81,3572.55,600.04,624.37,0.11,0000 0000 0000 0000 000000
2018-02-04 10:03:42,0.87,0.09,1.00,17.17,20.42,23.90,14.60,47.72,1043.96,2053.98,3456.69,3101.03,3559.06,600.13,624.39,0.16,0000 0000 0000 0000 000000
2018-02-04 10:08:44,0.83,0.13,1.00,17.17,20.42,23.88,14.54,47.63,1043.96,2053.98,3441.46,3089.41,3545.81,599.88,624.24,0.21,0000 0000 0000 0000 000000
2018-02-04 10:13:45,0.79,0.17,1.00,17.17,20.40,23.88,14.61,47.75,1043.96,2053.98,3426.19,3077.70,3532.57,600.19,624.58,0.26,0000 0000 0000 0000 000000
2018-02-04 10:18:46,0.74,0.20,1.00,17.13,20.39,23.87,14.55,47.54,1043.96,2053.97,3411.34,3066.35,3519.39,599.69,624.21,0.31,0000 0000 0000 0000 000000
2018-02-04 10:23:47,0.71,0.24,1.00,17.13,20.39,23.88,14.55,47.60,1043.95,2053.97,3396.95,3055.26,3506.82,599.81,624.17,0.36,0000 0000 0000 0000 000000
2018-02-04 10:28:49,0.69,0.28,1.00,17.11,20.39,23.86,14.55,47.61,1043.89,2053.98,3382.76,3044.33,3494.47,599.71,624.15,0.41,0000 0000 0000 0000 000000
2018-02-04 10:33:50,0.71,0.31,1.00,17.10,20.39,23.86,14.63,47.62,1043.81,2053.97,3368.43,3033.28,3481.86,600.10,624.51,0.46,0000 0000 0000 0000 000000
2018-02-04 10:38:51,0.71,0.35,1.00,17.11,20.37,23.85,14.63,47.68,1043.86,2053.97,3354.05,3022.21,3469.33,599.94,624.35,0.51,0000 0000 0000 0000 000000
2018-02-04 10:43:52,0.72,0.38,1.00,17.09,20.37,23.85,14.62,47.71,1043.82,2053.97,3339.70,3011.16,3456.84,600.20,624.54,0.56,0000 0000 0000 0000 000000
2018-02-04 10:48:54,0.72,0.42,1.00,17.09,20.37,23.83,14.55,47.70,1043.88,2053.97,3325.49,3000.16,3444.05,599.92,624.49,0.61,0000 0000 0000 0000 000000
2018-02-04 10:53:55,0.74,0.46,1.00,17.08,20.37,23.83,14.66,47.69,1043.93,2053.95,3310.92,2988.84,3431.08,599.93,624.45,0.66,0000 0000 0000 0000 000000
2018-02-04 10:58:56,0.73,0.49,1.00,17.08,20.35,23.83,14.71,47.82,1043.91,2053.95,3296.45,2977.57,3418.31,600.01,624.61,0.71,0000 0000 0000 0000 000000
2018-02-04 11:03:57,0.72,0.53,1.00,17.09,20.34,23.81,14.72,47.67,1043.93,2053.88,3282.29,2966.55,3405.74,600.03,624.51,0.76,0000 0000 0000 0000 000000
2018-02-04 11:08:58,0.72,0.57,1.00,17.09,20.34,23.80,14.52,47.45,1043.96,2053.86,3268.17,2955.68,3393.47,599.83,624.29,0.81,0000 0000 0000 0000 000000
2018-02-04 11:14:00,0.72,0.60,1.00,17.09,20.34,23.81,14.57,47.48,1043.95,2053.93,3254.49,2944.94,3381.27,599.98,624.50,0.86,0000 0000 0000 0000 000000
2018-02-04 11:19:01,0.70,0.64,1.00,17.07,20.32,23.80,14.60,47.37,1043.95,2053.91,3240.98,2934.47,3369.11,599.91,624.31,0.91,0000 0000 0000 0000 000000
2018-02-04 11:24:02,0.70,0.68,1.00,17.07,20.32,23.80,14.59,47.45,1043.96,2053.87,3227.40,2924.01,3357.26,599.81,624.32,0.96,0000 0000 0000 0000 000000
2018-02-04 11:29:03,0.70,0.71,1.00,17.07,20.32,23.79,14.68,47.57,1043.95,2053.63,3213.86,2913.40,3345.17,600.15,624.94,1.01,0000 0000 0000 0000 000000
2018-02-04 11:34:04,0.72,0.75,1.00,17.07,20.32,23.78,14.67,47.58,1043.96,2053.60,3200.35,2902.86,3333.26,600.31,624.79,1.06,0000 0000 0000 0000 000000
2018-02-04 11:39:06,0.71,0.78,1.00,17.06,20.30,23.79,14.67,47.58,1043.96,2053.70,3187.16,2892.64,3321.75,599.89,624.57,1.11,0000 0000 0000 0000 000000
2018-02-04 11:44:07,0.72,0.82,1.00,17.05,20.29,23.78,14.62,47.66,1043.93,2053.86,3174.03,2882.42,3310.17,600.07,624.76,1.16,0000 0000 0000 0000 000000
2018-02-04 11:49:09,0.71,0.85,1.00,17.03,20.29,23.77,14.62,47.63,1043.83,2053.93,3160.88,2872.31,3298.46,600.20,624.77,1.21,0000 0000 0000 0000 000000
2018-02-04 11:54:10,0.71,0.89,1.00,17.04,20.29,23.76,14.58,47.61,1043.92,2053.92,3147.73,2862.07,3286.73,599.73,624.38,1.26,0000 0000 0000 0000 000000
2018-02-04 11:59:11,0.71,0.93,1.00,17.04,20.29,23.76,14.61,47.73,1043.95,2053.91,3134.60,2851.84,3275.15,599.74,624.35,1.31,0000 0000 0000 0000 000000
2018-02-04 12:04:13,0.71,0.96,1.00,17.03,20.29,23.77,14.66,47.73,1043.90,2053.91,3121.77,2841.63,3263.60,600.10,624.54,1.36,0000 0000 0000 0000 000000
2018-02-04 12:09:14,0.71,1.00,1.00,17.04,20.29,23.75,14.48,47.74,1043.72,2053.86,3108.88,2831.51,3252.10,599.78,624.26,1.41,0000 0000 0000 0000 000000
2018-02-04 12:14:15,0.70,1.03,1.00,17.03,20.29,23.76,14.66,47.83,1043.63,2053.76,3096.04,2821.45,3240.66,600.06,624.47,1.47,0000 0000 0000 0000 000000
2018-02-04 12:19:16,0.69,1.07,1.00,17.02,20.29,23.75,14.66,47.77,1043.63,2053.45,3083.29,2811.38,3228.90,600.08,624.59,1.52,0000 0000 0000 0000 000000
2018-02-04 12:24:18,0.70,1.10,1.00,17.02,20.28,23.76,14.62,47.74,1043.67,2053.21,3070.53,2801.35,3217.36,600.15,624.60,1.57,0000 0000 0000 0000 000000
2018-02-04 12:29:19,0.72,1.14,1.00,17.00,20.27,23.74,14.63,47.83,1043.72,2053.11,3057.69,2791.22,3205.86,599.88,624.45,1.62,0000 0000 0000 0000 000000
2018-02-04 12:34:21,0.73,1.18,1.00,17.00,20.27,23.74,14.60,47.87,1043.65,2053.10,3044.82,2781.19,3194.70,599.79,624.36,1.67,0000 0000 0000 0000 000000
2018-02-04 12:39:22,0.73,1.21,1.00,17.02,20.27,23.74,14.65,47.75,1043.69,2053.12,3032.03,2771.22,3183.44,599.94,624.49,1.72,0000 0000 0000 0000 000000
2018-02-04 12:44:23,0.71,1.25,1.00,17.01,20.27,23.73,14.62,47.67,1043.67,2053.04,3019.64,2761.36,3172.07,599.94,624.60,1.77,0000 0000 0000 0000 000000
2018-02-04 12:49:24,0.70,1.28,1.00,16.99,20.26,23.72,14.59,47.85,1043.60,2053.05,3007.60,2751.78,3160.82,599.55,624.21,1.82,0000 0000 0000 0000 000000
2018-02-04 12:54:25,0.71,1.32,1.00,16.97,20.25,23.70,14.57,47.73,1043.60,2053.02,2995.38,2742.20,3149.78,599.65,624.17,1.87,0000 0000 0000 0000 000000